Glens Falls, NY

3:15 AM EDT on June 25, 2017 (GMT -0400)
Bennett Memorial

Weather History for KGFL - January, 2014

Change the Weather History Date:

Sunday, January 5, 2014

  Actual Average Record
Temperature  
Mean Temperature 15 °F 19 °F  
Max Temperature 30 °F 29 °F 62 °F (1950)
Min Temperature -1 °F 9 °F -23 °F (1996)
Degree Days  
Heating Degree Days 50 46  
Month to date heating degree days 315 229  
Since 1 July heating degree days 3254 3167  
Cooling Degree Days 0 0  
Month to date cooling degree days 0 0  
Year to date cooling degree days 0 0  
Moisture  
Dew Point 15 °F    
Average Humidity 77    
Maximum Humidity 100    
Minimum Humidity 53    
Precipitation  
Precipitation 0.09 in 0.09 in 0.71 in (1949)
Month to date precipitation 0.15 0.45  
Year to date precipitation 0.15 0.45  
Sea Level Pressure  
Sea Level Pressure 30.11 in    
Wind  
Wind Speed 1 mph (NNW)    
Max Wind Speed 7 mph    
Max Gust Speed 9 mph    
Visibility 7 miles    
Events Rain    
T = Trace of Precipitation, MM = Missing Value Source: NWS Daily Summary

Daily Weather History Graph

Daily Weather History Graph

Search for Another Location

Airport or City:

Trip Planner

Search our weather history database for the weather conditions in past years. The results will help you decide how hot, cold, wet, or windy it might be!

Date:

Astronomy

Jan. 05, 2014 Rise Set
Actual Time 7:26 AM EST 4:33 PM EST
Civil Twilight 6:54 AM EST 5:05 PM EST
Nautical Twilight 6:18 AM EST 5:41 PM EST
Astronomical Twilight 5:44 AM EST 6:15 PM EST
Moon 9:57 AM EST (1/5) 10:07 PM EST (1/5)
Length of Visible Light 10h 10m
Length of Day
9h 06m
Waxing Crescent, 24% of the Moon is Illuminated
Jan 5
Waxing Crescent
Jan 7
First Quarter
Jan 15
Full
Jan 24
Last Quarter
Jan 30
New

Hourly Weather History & Observations

Time (EST) Temp. Windchill Dew Point Humidity Pressure Visibility Wind Dir Wind Speed Gust Speed Precip Events Conditions
12:53 AM 12.9 °F 5.2 °F 3.9 °F 67% 30.28 in 10.0 mi West 4.6 mph - N/A   Partly Cloudy
1:53 AM 5.0 °F -2.1 °F -0.0 °F 80% 30.29 in 10.0 mi West 3.5 mph - N/A   Clear
2:53 AM 3.9 °F - -0.0 °F 84% 30.28 in 10.0 mi Calm Calm - N/A   Clear
3:53 AM 5.0 °F - -0.0 °F 80% 30.27 in 10.0 mi Calm Calm - N/A   Clear
4:53 AM 1.9 °F - -0.9 °F 88% 30.28 in 10.0 mi Calm Calm - N/A   Clear
5:53 AM 1.0 °F - -2.9 °F 83% 30.30 in 10.0 mi Calm Calm - N/A   Clear
6:53 AM 1.0 °F - -4.0 °F 79% 30.31 in 10.0 mi Calm Calm - N/A   Clear
7:53 AM 1.9 °F - -2.9 °F 80% 30.33 in 10.0 mi Calm Calm - N/A   Clear
8:53 AM 8.1 °F - 3.0 °F 80% 30.33 in 9.0 mi Calm Calm - N/A   Clear
9:53 AM 17.1 °F - 9.0 °F 71% 30.33 in 10.0 mi Calm Calm - N/A   Clear
10:53 AM 21.0 °F 14.6 °F 10.9 °F 65% 30.32 in 10.0 mi South 4.6 mph - N/A   Clear
11:53 AM 26.1 °F 21.9 °F 12.9 °F 58% 30.27 in 10.0 mi SSE 3.5 mph - N/A   Clear
12:53 PM 26.1 °F 19.4 °F 12.9 °F 58% 30.23 in 10.0 mi NE 5.8 mph - N/A   Clear
1:53 PM 28.0 °F 22.8 °F 15.1 °F 58% 30.19 in 10.0 mi NE 4.6 mph - N/A   Clear
2:53 PM 28.9 °F 23.9 °F 15.1 °F 56% 30.17 in 10.0 mi NE 4.6 mph - N/A   Clear
3:53 PM 28.0 °F - 14.0 °F 56% 30.17 in 10.0 mi Calm Calm - N/A   Clear
4:53 PM 28.0 °F - 15.1 °F 58% 30.15 in 10.0 mi Calm Calm - N/A   Overcast
5:53 PM 28.0 °F - 17.1 °F 63% 30.14 in 5.0 mi Calm Calm - 0.00 in   Overcast
6:01 PM 28.4 °F - 17.6 °F 64% 30.11 in 3.0 mi Calm Calm - 0.02 in Rain Light Freezing Rain
6:28 PM 26.6 °F - 21.2 °F 80% 30.09 in 4.0 mi Calm Calm - 0.07 in Rain Light Freezing Rain
6:53 PM 28.0 °F 24.2 °F 23.0 °F 81% 30.10 in 4.0 mi North 3.5 mph - 0.09 in Rain Light Freezing Rain
7:25 PM 28.4 °F - 24.8 °F 86% 30.04 in 8.0 mi Calm Calm - 0.00 in   Overcast
7:53 PM 28.0 °F - 24.1 °F 85% 30.06 in 8.0 mi Calm Calm - 0.00 in   Overcast
8:53 PM 28.9 °F - 26.1 °F 89% 30.01 in 6.0 mi Calm Calm - 0.00 in   Overcast
9:53 PM 30.0 °F - 27.0 °F 88% 29.94 in 7.0 mi Calm Calm - 0.00 in   Overcast
10:03 PM 30.2 °F - 26.6 °F 86% 29.90 in 7.0 mi Calm Calm - N/A   Overcast
10:53 PM 28.9 °F - 28.0 °F 96% 29.86 in 3.0 mi Calm Calm - 0.00 in   Overcast
11:10 PM 30.2 °F 26.7 °F 28.4 °F 93% 29.80 in 2.5 mi WNW 3.5 mph - N/A   Overcast
11:17 PM 28.4 °F - 28.4 °F 100% 29.80 in 2.0 mi Calm Calm - 0.00 in   Overcast
11:24 PM 30.2 °F - 28.4 °F 93% 29.79 in 2.0 mi Calm Calm - 0.00 in   Overcast
11:30 PM 30.2 °F 26.7 °F 28.4 °F 93% 29.78 in 2.5 mi WNW 3.5 mph - 0.00 in   Overcast
11:35 PM 30.2 °F - 28.4 °F 93% 29.77 in 3.0 mi Calm Calm - 0.00 in   Overcast
11:53 PM 30.0 °F - 28.9 °F 96% 29.78 in 4.0 mi Calm Calm - 0.00 in   Overcast